| time (UTC) | temp F | wind direction | speed MPH | gust MPH | rain 1hr in | rain 24hr in | rain mn in | humidity % | barometer mb |
| 20260906203035 | 91 | 360 | 20.0 | 28.0 | 0.00 | 0.00 | 0.00 | 41 | 1006.4 |
| 20260906201545 | 90 | 360 | 18.0 | 26.0 | 0.00 | 0.00 | 0.00 | 43 | 1006.6 |
| 20260906200001 | 90 | 360 | 20.0 | 29.0 | 0.00 | 0.00 | 0.00 | 44 | 1006.9 |
| 20260906194611 | 89 | 360 | 15.0 | 32.0 | 0.00 | 0.00 | 0.00 | 45 | 1007.0 |
| 20260906193056 | 89 | 360 | 18.0 | 28.0 | 0.00 | 0.00 | 0.00 | 46 | 1007.2 |
| 20260906191554 | 89 | 360 | 19.0 | 27.0 | 0.00 | 0.00 | 0.00 | 46 | 1007.2 |
| 20260906190137 | 89 | 360 | 20.0 | 29.0 | 0.00 | 0.00 | 0.00 | 46 | 1007.5 |
| 20260906184552 | 88 | 360 | 18.0 | 24.0 | 0.00 | 0.00 | 0.00 | 46 | 1007.6 |
| 20260906183030 | 88 | 360 | 14.0 | 25.0 | 0.00 | 0.00 | 0.00 | 49 | 1007.7 |
| 20260906181521 | 87 | 360 | 16.0 | 27.0 | 0.00 | 0.00 | 0.00 | 49 | 1008.0 |
| 20260906180012 | 87 | 360 | 14.0 | 22.0 | 0.00 | 0.00 | 0.00 | 49 | 1008.1 |
| 20260906174509 | 86 | 360 | 14.0 | 25.0 | 0.00 | 0.00 | 0.00 | 49 | 1008.3 |
| 20260906173007 | 86 | 360 | 14.0 | 20.0 | 0.00 | 0.00 | 0.00 | 50 | 1008.4 |
| 20260906171504 | 85 | 360 | 13.0 | 23.0 | 0.00 | 0.00 | 0.00 | 53 | 1008.5 |
| 20260906170032 | 83 | 360 | 17.0 | 23.0 | 0.00 | 0.00 | 0.00 | 54 | 1008.6 |
| 20260906164528 | 82 | 360 | 15.0 | 20.0 | 0.00 | 0.00 | 0.00 | 57 | 1008.6 |
| 20260906163057 | 82 | 360 | 15.0 | 21.0 | 0.00 | 0.00 | 0.00 | 57 | 1008.8 |
| 20260906161553 | 82 | 360 | 12.0 | 22.0 | 0.00 | 0.00 | 0.00 | 57 | 1008.8 |
| 20260906160050 | 81 | 360 | 13.0 | 22.0 | 0.00 | 0.00 | 0.00 | 59 | 1008.6 |
| 20260906154545 | 80 | 360 | 11.0 | 18.0 | 0.00 | 0.00 | 0.00 | 62 | 1008.6 |
| 20260906153043 | 79 | 360 | 12.0 | 17.0 | 0.00 | 0.00 | 0.00 | 63 | 1008.7 |
| 20260906151539 | 77 | 360 | 10.0 | 18.0 | 0.00 | 0.00 | 0.00 | 65 | 1008.5 |
| 20260906150036 | 76 | 360 | 7.0 | 17.0 | 0.00 | 0.00 | 0.00 | 68 | 1008.6 |
| 20260906144530 | 75 | 360 | 4.0 | 11.0 | 0.00 | 0.00 | 0.00 | 70 | 1008.7 |
| 20260906143025 | 73 | 360 | 2.0 | 8.0 | 0.00 | 0.00 | 0.00 | 77 | 1008.8 |
| 20260906141525 | 71 | 360 | 2.0 | 5.0 | 0.00 | 0.00 | 0.00 | 81 | 1008.8 |
| 20260906140039 | 69 | 360 | 2.0 | 8.0 | 0.00 | 0.00 | 0.00 | 84 | 1009.0 |
| 20260906134519 | 69 | 360 | 2.0 | 9.0 | 0.00 | 0.00 | 0.00 | 84 | 1008.7 |
| 20260906133017 | 68 | 360 | 4.0 | 11.0 | 0.00 | 0.00 | 0.00 | 85 | 1008.6 |
| 20260906131516 | 67 | 360 | 0.0 | 2.0 | 0.00 | 0.00 | 0.00 | 88 | 1008.5 |
| 20260906130013 | 66 | 360 | 0.0 | 0.0 | 0.00 | 0.00 | 0.00 | 89 | 1008.4 |
| 20260906124511 | 65 | 360 | 0.0 | 3.0 | 0.00 | 0.00 | 0.00 | 89 | 1008.4 |
| 20260906123014 | 65 | 360 | 0.0 | 0.0 | 0.00 | 0.00 | 0.00 | 87 | 1008.2 |
| 20260906121509 | 65 | 360 | 0.0 | 2.0 | 0.00 | 0.00 | 0.00 | 87 | 1008.2 |
| 20260906120108 | 65 | 360 | 0.0 | 3.0 | 0.00 | 0.00 | 0.00 | 87 | 1008.1 |
| 20260906114537 | 65 | 96 | 0.0 | 1.0 | 0.00 | 0.00 | 0.00 | 86 | 1008.2 |
| 20260906113041 | 65 | 103 | 1.0 | 3.0 | 0.00 | 0.00 | 0.00 | 85 | 1008.1 |
| 20260906111530 | 66 | 360 | 0.0 | 0.0 | 0.00 | 0.00 | 0.00 | 84 | 1008.0 |
| 20260906110028 | 66 | 360 | 0.0 | 0.0 | 0.00 | 0.00 | 0.00 | 83 | 1007.9 |
| 20260906104531 | 66 | 85 | 0.0 | 0.0 | 0.00 | 0.00 | 0.00 | 81 | 1007.9 |
| 20260906103024 | 67 | 85 | 0.0 | 0.0 | 0.00 | 0.00 | 0.00 | 80 | 1007.9 |
| 20260906101521 | 67 | 81 | 1.0 | 4.0 | 0.00 | 0.00 | 0.00 | 79 | 1007.8 |
| 20260906100019 | 67 | 360 | 1.0 | 3.0 | 0.00 | 0.00 | 0.00 | 76 | 1007.5 |
| 20260906094513 | 69 | 360 | 1.0 | 4.0 | 0.00 | 0.00 | 0.00 | 71 | 1006.9 |
| 20260906093033 | 71 | 360 | 0.0 | 0.0 | 0.00 | 0.00 | 0.00 | 71 | 1006.7 |
| 20260906091509 | 71 | 360 | 0.0 | 0.0 | 0.00 | 0.00 | 0.00 | 70 | 1006.7 |
| 20260906090013 | 71 | 360 | 0.0 | 1.0 | 0.00 | 0.00 | 0.00 | 69 | 1006.7 |
| 20260906084511 | 71 | 360 | 0.0 | 3.0 | 0.00 | 0.00 | 0.00 | 69 | 1006.7 |
| 20260906083011 | 71 | 360 | 1.0 | 3.0 | 0.00 | 0.00 | 0.00 | 70 | 1006.9 |
| 20260906081504 | 70 | 360 | 0.0 | 3.0 | 0.00 | 0.00 | 0.00 | 72 | 1007.1 |
| 20260906080003 | 70 | 360 | 0.0 | 1.0 | 0.00 | 0.00 | 0.00 | 71 | 1007.1 |
| 20260906074506 | 70 | 360 | 0.0 | 3.0 | 0.00 | 0.00 | 0.00 | 72 | 1007.0 |
| 20260906073101 | 70 | 360 | 0.0 | 4.0 | 0.00 | 0.00 | 0.00 | 72 | 1006.8 |
| 20260906073002 | 70 | 360 | 0.0 | 4.0 | 0.00 | 0.00 | 0.00 | 72 | 1006.8 |
| 20260906071558 | 70 | 360 | 2.0 | 3.0 | 0.00 | 0.00 | 0.00 | 72 | 1006.5 |
| 20260906070056 | 70 | 360 | 0.0 | 0.0 | 0.00 | 0.00 | 0.00 | 73 | 1006.5 |
| 20260906064555 | 71 | 360 | 0.0 | 1.0 | 0.00 | 0.00 | 0.00 | 73 | 1006.5 |
| 20260906063055 | 71 | 360 | 2.0 | 5.0 | 0.00 | 0.00 | 0.00 | 73 | 1006.5 |
| 20260906061521 | 72 | 360 | 2.0 | 5.0 | 0.00 | 0.00 | 0.00 | 73 | 1006.4 |
| 20260906060017 | 72 | 360 | 3.0 | 8.0 | 0.00 | 0.00 | 0.00 | 73 | 1006.1 |
| 20260906054513 | 73 | 360 | 6.0 | 10.0 | 0.00 | 0.00 | 0.00 | 72 | 1006.1 |
| 20260906053018 | 74 | 360 | 1.0 | 4.0 | 0.00 | 0.00 | 0.00 | 71 | 1006.2 |
| 20260906051511 | 74 | 360 | 3.0 | 11.0 | 0.00 | 0.00 | 0.00 | 71 | 1006.2 |
| 20260906050010 | 74 | 360 | 3.0 | 8.0 | 0.00 | 0.00 | 0.00 | 70 | 1006.2 |
| 20260906044508 | 75 | 360 | 0.0 | 3.0 | 0.00 | 0.00 | 0.00 | 68 | 1006.3 |
| 20260906043009 | 76 | 360 | 1.0 | 3.0 | 0.00 | 0.00 | 0.00 | 65 | 1006.3 |
| 20260906041510 | 77 | 360 | 1.0 | 3.0 | 0.00 | 0.00 | 0.00 | 64 | 1006.8 |
| 20260906040007 | 78 | 360 | 1.0 | 3.0 | 0.00 | 0.00 | 0.00 | 62 | 1006.4 |
| 20260906034511 | 79 | 360 | 2.0 | 12.0 | 0.00 | 0.00 | 0.00 | 61 | 1006.7 |
| 20260906033004 | 79 | 360 | 6.0 | 15.0 | 0.00 | 0.00 | 0.00 | 60 | 1006.6 |
| 20260906031503 | 79 | 360 | 5.0 | 11.0 | 0.00 | 0.00 | 0.00 | 60 | 1006.4 |
| 20260906030003 | 79 | 360 | 3.0 | 10.0 | 0.00 | 0.00 | 0.00 | 60 | 1006.0 |
| 20260906024623 | 80 | 360 | 2.0 | 8.0 | 0.00 | 0.00 | 0.00 | 58 | 1005.7 |
| 20260906024500 | 80 | 360 | 2.0 | 8.0 | 0.00 | 0.00 | 0.00 | 58 | 1005.7 |
| 20260906023106 | 81 | 360 | 4.0 | 9.0 | 0.00 | 0.00 | 0.00 | 57 | 1005.8 |
| 20260906021559 | 82 | 360 | 3.0 | 10.0 | 0.00 | 0.00 | 0.00 | 56 | 1005.5 |
| 20260906020105 | 82 | 360 | 8.0 | 13.0 | 0.00 | 0.00 | 0.00 | 56 | 1005.4 |
| 20260906014556 | 83 | 360 | 8.0 | 13.0 | 0.00 | 0.00 | 0.00 | 55 | 1005.5 |
| 20260906013055 | 84 | 360 | 6.0 | 14.0 | 0.00 | 0.00 | 0.00 | 54 | 1005.2 |
| 20260906011600 | 85 | 360 | 7.0 | 19.0 | 0.00 | 0.00 | 0.00 | 53 | 1004.8 |
| 20260906010126 | 85 | 360 | 13.0 | 21.0 | 0.00 | 0.00 | 0.00 | 51 | 1004.9 |
| 20260906004551 | 86 | 360 | 13.0 | 22.0 | 0.00 | 0.00 | 0.00 | 48 | 1004.8 |
| 20260906003049 | 87 | 360 | 8.0 | 17.0 | 0.00 | 0.00 | 0.00 | 46 | 1004.6 |
| 20260906001602 | 88 | 360 | 13.0 | 19.0 | 0.00 | 0.00 | 0.00 | 43 | 1004.3 |
| 20260906000048 | 89 | 360 | 16.0 | 22.0 | 0.00 | 0.00 | 0.00 | 41 | 1004.1 |
| 20260905234546 | 90 | 360 | 13.0 | 22.0 | 0.00 | 0.00 | 0.00 | 42 | 1004.2 |
| 20260905233045 | 91 | 360 | 16.0 | 22.0 | 0.00 | 0.00 | 0.00 | 42 | 1004.1 |
| 20260905231546 | 92 | 360 | 17.0 | 25.0 | 0.00 | 0.00 | 0.00 | 42 | 1004.1 |
| 20260905230049 | 92 | 360 | 17.0 | 25.0 | 0.00 | 0.00 | 0.00 | 40 | 1004.0 |
| 20260905224546 | 93 | 360 | 15.0 | 22.0 | 0.00 | 0.00 | 0.00 | 41 | 1003.8 |
| 20260905223043 | 93 | 360 | 13.0 | 23.0 | 0.00 | 0.00 | 0.00 | 42 | 1003.8 |
| 20260905221550 | 93 | 360 | 15.0 | 24.0 | 0.00 | 0.00 | 0.00 | 41 | 1003.8 |
| 20260905220039 | 92 | 360 | 13.0 | 20.0 | 0.00 | 0.00 | 0.00 | 41 | 1003.7 |
| 20260905214537 | 94 | 360 | 13.0 | 21.0 | 0.00 | 0.00 | 0.00 | 40 | 1003.9 |
| 20260905213040 | 95 | 360 | 11.0 | 23.0 | 0.00 | 0.00 | 0.00 | 37 | 1004.0 |
| 20260905211541 | 94 | 360 | 10.0 | 15.0 | 0.00 | 0.00 | 0.00 | 36 | 1004.1 |
| 20260905210033 | 94 | 360 | 11.0 | 18.0 | 0.00 | 0.00 | 0.00 | 38 | 1004.2 |
| 20260905204531 | 95 | 360 | 15.0 | 25.0 | 0.00 | 0.00 | 0.00 | 37 | 1004.3 |